When you browse on this site, cookies collect data to enhance your experience and personalize the content and advertising you see.
Visit our Privacy Policy to learn more. By continuing to use the site, you agree to this use of cookies and data.
  • în România
  • Lista ţărilor
  • Pe 7 zile
  • Temperatura apei
  • Hartă satelitară
  • Meteo pe hartă
  • Widget-uri
  • user-avatar
    Intrare

    Meteo pe oră la Cabimas

    Astăzi, 12 Decembrie, Miercuri

    Timp Temperatura Precipitaţii Vânt Presiune Umiditate
    00:00 +27°C° 0 mm 4 m/s 760 mmHg 79%
    01:00 +26°C° 0 mm 3 m/s 760 mmHg 79%
    02:00 +26°C° 0 mm 3 m/s 760 mmHg 80%
    03:00 +26°C° 0 mm 3 m/s 759 mmHg 81%
    04:00 +26°C° 0 mm 2 m/s 759 mmHg 82%
    05:00 +26°C° 0 mm 2 m/s 759 mmHg 81%
    06:00 +27°C° 0 mm 2 m/s 760 mmHg 80%
    07:00 +27°C° 0 mm 2 m/s 760 mmHg 79%
    08:00 +29°C° 0 mm 2 m/s 760 mmHg 70%
    09:00 +32°C° 0 mm 2 m/s 760 mmHg 62%
    10:00 +34°C° 0 mm 1 m/s 760 mmHg 54%
    11:00 +36°C° 0 mm 2 m/s 759 mmHg 51%
    12:00 +36°C° 0 mm 2 m/s 758 mmHg 49%
    13:00 +37°C° 0 mm 2 m/s 757 mmHg 46%
    14:00 +36°C° 0 mm 3 m/s 757 mmHg 51%
    15:00 +35°C° 0 mm 4 m/s 757 mmHg 57%
    16:00 +34°C° 0 mm 4 m/s 756 mmHg 62%
    17:00 +32°C° 0.1 mm 5 m/s 757 mmHg 68%
    18:00 +30°C° 0.1 mm 5 m/s 757 mmHg 74%
    19:00 +28°C° 0.1 mm 5 m/s 758 mmHg 80%
    20:00 +28°C° 0.4 mm 5 m/s 758 mmHg 80%
    21:00 +28°C° 0.4 mm 5 m/s 759 mmHg 81%
    22:00 +27°C° 0.4 mm 5 m/s 759 mmHg 82%
    23:00 +27°C° 0.1 mm 5 m/s 759 mmHg 83%

    Mâine, 13 Decembrie, Joi

    Timp Temperatura Precipitaţii Vânt Presiune Umiditate
    00:00 +27°C° 0.1 mm 4 m/s 759 mmHg 83%
    01:00 +27°C° 0.1 mm 4 m/s 759 mmHg 84%
    02:00 +27°C° 0.2 mm 3 m/s 759 mmHg 84%
    03:00 +26°C° 0.2 mm 3 m/s 758 mmHg 84%
    04:00 +26°C° 0.2 mm 3 m/s 758 mmHg 85%
    05:00 +27°C° 0 mm 2 m/s 759 mmHg 84%
    06:00 +27°C° 0 mm 2 m/s 759 mmHg 83%
    07:00 +27°C° 0 mm 2 m/s 759 mmHg 82%
    08:00 +30°C° 0 mm 2 m/s 760 mmHg 73%
    09:00 +32°C° 0 mm 2 m/s 760 mmHg 64%
    10:00 +35°C° 0 mm 1 m/s 760 mmHg 55%
    11:00 +36°C° 0 mm 2 m/s 759 mmHg 54%
    12:00 +36°C° 0 mm 2 m/s 758 mmHg 52%
    13:00 +37°C° 0 mm 2 m/s 757 mmHg 50%
    14:00 +36°C° 0 mm 3 m/s 757 mmHg 53%
    15:00 +35°C° 0 mm 4 m/s 756 mmHg 56%
    16:00 +34°C° 0 mm 4 m/s 756 mmHg 59%
    17:00 +33°C° 0 mm 4 m/s 757 mmHg 64%
    18:00 +30°C° 0 mm 5 m/s 757 mmHg 69%
    19:00 +29°C° 0 mm 5 m/s 758 mmHg 75%
    20:00 +28°C° 0.1 mm 5 m/s 758 mmHg 75%
    21:00 +28°C° 0.1 mm 5 m/s 759 mmHg 76%
    22:00 +28°C° 0.1 mm 4 m/s 759 mmHg 77%
    23:00 +27°C° 0 mm 4 m/s 759 mmHg 78%

    Poimâine, 14 Decembrie, Vineri

    Timp Temperatura Precipitaţii Vânt Presiune Umiditate
    00:00 +27°C° 0 mm 4 m/s 759 mmHg 80%
    01:00 +27°C° 0 mm 4 m/s 759 mmHg 81%
    02:00 +26°C° 0.1 mm 4 m/s 759 mmHg 82%
    03:00 +26°C° 0.1 mm 4 m/s 759 mmHg 82%
    04:00 +26°C° 0.1 mm 4 m/s 759 mmHg 82%
    05:00 +26°C° 0.1 mm 3 m/s 759 mmHg 81%
    06:00 +26°C° 0.1 mm 3 m/s 760 mmHg 80%
    07:00 +27°C° 0.1 mm 3 m/s 760 mmHg 79%
    08:00 +29°C° 0 mm 2 m/s 760 mmHg 70%
    09:00 +32°C° 0 mm 2 m/s 761 mmHg 61%
    10:00 +34°C° 0 mm 1 m/s 761 mmHg 52%
    11:00 +36°C° 0 mm 2 m/s 760 mmHg 49%
    12:00 +37°C° 0 mm 2 m/s 759 mmHg 47%
    13:00 +37°C° 0 mm 3 m/s 758 mmHg 45%
    14:00 +36°C° 0 mm 3 m/s 758 mmHg 49%
    15:00 +35°C° 0 mm 3 m/s 757 mmHg 53%
    16:00 +34°C° 0 mm 4 m/s 757 mmHg 57%
    17:00 +32°C° 0 mm 4 m/s 757 mmHg 62%
    18:00 +30°C° 0 mm 4 m/s 758 mmHg 67%
    19:00 +29°C° 0 mm 4 m/s 758 mmHg 72%
    20:00 +28°C° 0 mm 4 m/s 759 mmHg 73%
    21:00 +28°C° 0 mm 4 m/s 759 mmHg 75%
    22:00 +27°C° 0 mm 4 m/s 760 mmHg 76%
    23:00 +27°C° 0 mm 4 m/s 759 mmHg 77%

    15 Decembrie, Sâmbătă

    Timp Temperatura Precipitaţii Vânt Presiune Umiditate
    00:00 +26°C° 0 mm 3 m/s 759 mmHg 78%
    01:00 +26°C° 0 mm 3 m/s 759 mmHg 80%
    02:00 +26°C° 0 mm 3 m/s 759 mmHg 80%
    03:00 +26°C° 0 mm 3 m/s 759 mmHg 81%
    04:00 +25°C° 0 mm 3 m/s 759 mmHg 81%
    05:00 +26°C° 0 mm 3 m/s 759 mmHg 81%
    06:00 +26°C° 0 mm 3 m/s 760 mmHg 80%
    07:00 +27°C° 0 mm 3 m/s 760 mmHg 79%
    08:00 +29°C° 0 mm 2 m/s 761 mmHg 70%
    09:00 +32°C° 0 mm 2 m/s 761 mmHg 61%
    10:00 +35°C° 0 mm 1 m/s 761 mmHg 52%
    11:00 +36°C° 0 mm 2 m/s 760 mmHg 49%
    12:00 +36°C° 0 mm 2 m/s 759 mmHg 47%
    13:00 +37°C° 0 mm 3 m/s 758 mmHg 44%
    14:00 +36°C° 0 mm 3 m/s 758 mmHg 47%
    15:00 +36°C° 0 mm 4 m/s 757 mmHg 50%
    16:00 +35°C° 0 mm 4 m/s 757 mmHg 53%
    17:00 +33°C° 0 mm 5 m/s 758 mmHg 58%
    18:00 +30°C° 0 mm 5 m/s 758 mmHg 64%
    19:00 +29°C° 0 mm 5 m/s 759 mmHg 70%
    20:00 +28°C° 0 mm 5 m/s 759 mmHg 71%
    21:00 +28°C° 0 mm 5 m/s 760 mmHg 73%
    22:00 +27°C° 0 mm 5 m/s 760 mmHg 74%
    23:00 +27°C° 0 mm 5 m/s 760 mmHg 76%

    16 Decembrie, Duminică

    Timp Temperatura Precipitaţii Vânt Presiune Umiditate
    00:00 +26°C° 0 mm 5 m/s 760 mmHg 77%
    01:00 +26°C° 0 mm 5 m/s 759 mmHg 79%
    02:00 +26°C° 0 mm 4 m/s 759 mmHg 79%
    03:00 +26°C° 0 mm 4 m/s 759 mmHg 80%
    04:00 +25°C° 0 mm 4 m/s 759 mmHg 80%
    05:00 +26°C° 0 mm 4 m/s 760 mmHg 79%
    06:00 +26°C° 0 mm 3 m/s 760 mmHg 78%
    07:00 +26°C° 0 mm 3 m/s 761 mmHg 77%
    08:00 +29°C° 0 mm 3 m/s 761 mmHg 68%
    09:00 +31°C° 0 mm 2 m/s 761 mmHg 59%
    10:00 +35°C° 0 mm 2 m/s 761 mmHg 50%
    11:00 +36°C° 0 mm 2 m/s 760 mmHg 46%
    12:00 +37°C° 0 mm 2 m/s 759 mmHg 43%
    13:00 +38°C° 0 mm 2 m/s 758 mmHg 40%
    14:00 +37°C° 0 mm 3 m/s 757 mmHg 42%
    15:00 +36°C° 0 mm 3 m/s 757 mmHg 45%
    16:00 +36°C° 0 mm 3 m/s 757 mmHg 48%
    17:00 +34°C° 0 mm 4 m/s 757 mmHg 54%
    18:00 +30°C° 0 mm 4 m/s 758 mmHg 61%
    19:00 +28°C° 0 mm 5 m/s 758 mmHg 67%
    20:00 +27°C° 0 mm 5 m/s 759 mmHg 68%
    21:00 +27°C° 0 mm 5 m/s 759 mmHg 69%
    22:00 +27°C° 0 mm 5 m/s 760 mmHg 70%
    23:00 +26°C° 0 mm 5 m/s 759 mmHg 72%

    17 Decembrie, Luni

    Timp Temperatura Precipitaţii Vânt Presiune Umiditate
    00:00 +26°C° 0 mm 4 m/s 759 mmHg 74%
    01:00 +25°C° 0 mm 4 m/s 759 mmHg 75%
    02:00 +25°C° 0 mm 4 m/s 759 mmHg 76%
    03:00 +25°C° 0 mm 3 m/s 759 mmHg 77%
    04:00 +25°C° 0 mm 3 m/s 759 mmHg 79%
    05:00 +25°C° 0 mm 3 m/s 759 mmHg 78%
    06:00 +25°C° 0 mm 3 m/s 760 mmHg 78%
    07:00 +26°C° 0 mm 3 m/s 760 mmHg 77%
    08:00 +28°C° 0 mm 2 m/s 760 mmHg 67%
    09:00 +31°C° 0 mm 2 m/s 760 mmHg 58%
    10:00 +34°C° 0 mm 1 m/s 760 mmHg 48%
    11:00 +35°C° 0 mm 2 m/s 759 mmHg 45%
    12:00 +36°C° 0 mm 2 m/s 758 mmHg 43%
    13:00 +36°C° 0 mm 2 m/s 757 mmHg 40%
    14:00 +36°C° 0 mm 3 m/s 757 mmHg 44%
    15:00 +35°C° 0 mm 3 m/s 756 mmHg 48%
    16:00 +34°C° 0 mm 3 m/s 756 mmHg 51%
    17:00 +32°C° 0 mm 4 m/s 757 mmHg 60%
    18:00 +29°C° 0 mm 4 m/s 757 mmHg 68%
    19:00 +27°C° 0 mm 5 m/s 758 mmHg 76%
    20:00 +27°C° 0 mm 5 m/s 758 mmHg 78%
    21:00 +27°C° 0 mm 5 m/s 759 mmHg 79%
    22:00 +26°C° 0 mm 5 m/s 759 mmHg 81%
    23:00 +26°C° 0.1 mm 4 m/s 759 mmHg 81%
    Arată mai mult